Aktion, Greece

3:52 AM EEST on May 23, 2017 (GMT +0300)
Aktion Air Base

Weather History for LGPZ - October, 2012

Change the Weather History Date:

Saturday, October 27, 2012

  Actual Average Record
Temperature  
Mean Temperature 66 °F -  
Max Temperature 76 °F 64 °F 76 °F (2012)
Min Temperature 57 °F 52 °F 53 °F (1997)
Cooling Degree Days 2    
Growing Degree Days 16 (Base 50)    
Moisture  
Dew Point 62 °F    
Average Humidity 77    
Maximum Humidity 94    
Minimum Humidity 60    
Precipitation  
Precipitation 0.08 in - - ()
Sea Level Pressure  
Sea Level Pressure 29.73 in    
Wind  
Wind Speed 7 mph ()    
Max Wind Speed 23 mph    
Max Gust Speed 34 mph    
Visibility 6.0 miles    
Events Rain , Thunderstorm    
Averages and records for this station are not official NWS values.
T = Trace of Precipitation, MM = Missing Value Source: Averaged Metar Reports

Daily Weather History Graph

Daily Weather History Graph

Search for Another Location

Airport or City:

Trip Planner

Search our weather history database for the weather conditions in past years. The results will help you decide how hot, cold, wet, or windy it might be!

Date:

Astronomy

Oct. 27, 2012 Rise Set
Actual Time 7:58 AM EEST 6:41 PM EEST
Civil Twilight 7:31 AM EEST 7:09 PM EEST
Nautical Twilight 7:00 AM EEST 7:40 PM EEST
Astronomical Twilight 6:29 AM EEST 8:11 PM EEST
Moon 5:17 PM EEST (10/27) 5:37 AM EEST (10/27)
Length of Visible Light 11h 37m
Length of Day
10h 43m
Waxing Gibbous, 94% of the Moon is Illuminated
Oct 27
Waxing Gibbous
Oct 29
Full
Nov 7
Last Quarter
Nov 14
New
Nov 20
First Quarter

Hourly Weather History & Observations

Time (EEST) Temp. Dew Point Humidity Pressure Visibility Wind Dir Wind Speed Gust Speed Precip Events Conditions
12:50 AM 59.0 °F 57.2 °F 94% 29.86 in 6.2 mi Calm Calm - N/A   Partly Cloudy
1:50 AM 59.0 °F 57.2 °F 94% 29.86 in 6.2 mi Calm Calm - N/A   Partly Cloudy
2:50 AM 57.2 °F 53.6 °F 88% 29.86 in 6.2 mi Calm Calm - N/A   Partly Cloudy
3:00 AM 58 °F 54 °F 83% 29.86 in 6 mi Calm Calm - -   Scattered Clouds
3:50 AM 60.8 °F 57.2 °F 88% 29.83 in 6.2 mi East 4.6 mph - N/A   Scattered Clouds
4:50 AM 60.8 °F 57.2 °F 88% 29.83 in 6.2 mi East 4.6 mph - N/A   Scattered Clouds
5:50 AM 62.6 °F 57.2 °F 82% 29.80 in 6.2 mi East 4.6 mph - N/A   Scattered Clouds
6:20 AM 62.6 °F 57.2 °F 82% 29.80 in 6.2 mi East 4.6 mph - N/A   Scattered Clouds
6:50 AM 64.4 °F 59.0 °F 83% 29.77 in 6.2 mi ESE 4.6 mph - N/A   Scattered Clouds
7:20 AM 64.4 °F 59.0 °F 83% 29.77 in 6.2 mi ESE 5.8 mph - N/A   Mostly Cloudy
7:50 AM 66.2 °F 60.8 °F 83% 29.74 in 6.2 mi ESE 4.6 mph - N/A Rain Light Rain
8:20 AM 66.2 °F 60.8 °F 83% 29.74 in 6.2 mi ESE 5.8 mph - N/A Rain Light Rain
8:50 AM 68.0 °F 60.8 °F 78% 29.74 in 6.2 mi Calm Calm - N/A Rain Light Rain
9:00 AM 68 °F 61 °F 73% 29.76 in 6 mi Calm Calm - - Rain Light Rain
9:20 AM 68.0 °F 60.8 °F 78% 29.74 in 3.1 mi South 9.2 mph - N/A Rain , Thunderstorm Light Thunderstorms and Rain
9:50 AM 68.0 °F 62.6 °F 83% 29.74 in 6.2 mi SSE 12.7 mph - N/A Rain Light Rain
10:20 AM 69.8 °F 62.6 °F 78% 29.74 in 5.0 mi South 13.8 mph 25.3 mph N/A   Mostly Cloudy
10:50 AM 69.8 °F 62.6 °F 78% 29.74 in 5.6 mi SSE 11.5 mph - N/A   Mostly Cloudy
11:20 AM 69.8 °F 64.4 °F 83% 29.74 in 6.2 mi South 13.8 mph 25.3 mph N/A Thunderstorm Thunderstorm
11:50 AM 71.6 °F 64.4 °F 78% 29.71 in 5.0 mi South 17.3 mph 28.8 mph N/A Thunderstorm Thunderstorm
12:20 PM 73.4 °F 64.4 °F 73% 29.71 in 5.6 mi South 19.6 mph 31.1 mph N/A Thunderstorm Thunderstorm
12:50 PM 73.4 °F 64.4 °F 73% 29.74 in 6.2 mi South 16.1 mph 27.6 mph N/A   Mostly Cloudy
1:20 PM 73.4 °F 64.4 °F 73% 29.71 in 6.2 mi South 16.1 mph - N/A   Mostly Cloudy
1:50 PM 73.4 °F 64.4 °F 73% 29.71 in 6.2 mi South 15.0 mph 26.5 mph N/A   Mostly Cloudy
2:20 PM 75.2 °F 62.6 °F 65% 29.71 in 6.2 mi WNW 18.4 mph - N/A   Mostly Cloudy
2:50 PM 75.2 °F 62.6 °F 65% 29.71 in 6.2 mi SSW 13.8 mph - N/A   Mostly Cloudy
3:00 PM 74 °F 63 °F 60% 29.71 in 6 mi SSW 13.8 mph - -   Partly Cloudy
3:20 PM 75.2 °F 64.4 °F 69% 29.71 in 6.2 mi South 15.0 mph - N/A   Mostly Cloudy
3:50 PM 75.2 °F 64.4 °F 69% 29.68 in 6.2 mi South 18.4 mph - N/A   Mostly Cloudy
4:20 PM 75.2 °F 64.4 °F 69% 29.68 in 6.2 mi South 16.1 mph - N/A   Mostly Cloudy
4:50 PM 75.2 °F 62.6 °F 65% 29.68 in 6.2 mi South 15.0 mph - N/A   Mostly Cloudy
5:20 PM 73.4 °F 64.4 °F 73% 29.68 in 6.2 mi South 13.8 mph 25.3 mph N/A   Mostly Cloudy
5:50 PM 73.4 °F 64.4 °F 73% 29.65 in 6.2 mi South 13.8 mph 25.3 mph N/A   Overcast
6:20 PM 73.4 °F 64.4 °F 73% 29.65 in 6.2 mi South 13.8 mph 25.3 mph N/A   Overcast
6:50 PM 73.4 °F 62.6 °F 69% 29.65 in 6.2 mi South 13.8 mph 25.3 mph N/A   Scattered Clouds
7:20 PM 73.4 °F 66.2 °F 78% 29.68 in 6.2 mi South 11.5 mph - N/A   Scattered Clouds
7:50 PM 73.4 °F 66.2 °F 78% 29.68 in 6.2 mi SSE 11.5 mph - N/A   Mostly Cloudy
8:20 PM 73.4 °F 64.4 °F 73% 29.68 in 6.2 mi South 13.8 mph - N/A   Mostly Cloudy
8:50 PM 73.4 °F 66.2 °F 78% 29.68 in 6.2 mi South 15.0 mph 26.5 mph N/A   Mostly Cloudy
9:00 PM 73 °F 66 °F 72% 29.69 in 6 mi South 15.0 mph - -   Partly Cloudy
9:50 PM 71.6 °F 66.2 °F 83% 29.65 in 6.2 mi South 16.1 mph - N/A   Overcast
10:50 PM 73.4 °F 66.2 °F 78% 29.65 in 6.2 mi SSE 20.7 mph 32.2 mph N/A   Overcast
11:50 PM 75.2 °F 66.2 °F 73% 29.65 in 6.2 mi SSE 23.0 mph 34.5 mph N/A   Mostly Cloudy